Weather History for Burlington, VT

Change the Weather History Date:

Saturday, October 15, 2011

  Actual Average Record
Temperature  
Mean Temperature 54 °F 48 °F  
Max Temperature 58 °F 57 °F 79 °F (1947)
Min Temperature 49 °F 39 °F 24 °F (1980)
Degree Days  
Heating Degree Days 11 17  
Month to date heating degree days 152 212  
Since 1 July heating degree days 247 429  
Cooling Degree Days 0 0  
Month to date cooling degree days 0 0  
Year to date cooling degree days 628 489  
Growing Degree Days 4 (Base 50)    
Moisture  
Dew Point 48 °F    
Average Humidity 81    
Maximum Humidity 100    
Minimum Humidity 62    
Precipitation  
Precipitation 0.27 in 0.12 in 2.14 in (2010)
Month to date precipitation 2.67 1.83  
Year to date precipitation 46.44 29.54  
Snow  
Snow 0.00 in 0.00 in 0.00 in (2002)
Month to date snowfall 0.0 0.0  
Since 1 July snowfall 0.0 T  
Since 1 September snowfall 0.0 T  
Snow Depth 0.00 in    
Sea Level Pressure  
Sea Level Pressure 29.35 in    
Wind  
Wind Speed 14 mph (SSW)    
Max Wind Speed 25 mph    
Max Gust Speed 38 mph    
Visibility 9 miles    
Events Rain , Thunderstorm    
T = Trace of Precipitation, MM = Missing Value Source: NWS Daily Summary

Daily Weather History Graph

Daily Weather History Graph

Search for Another Location

Airport:

Trip Planner

Search our weather history database for the weather conditions in past years. The results will help you decide how hot, cold, wet, or windy it might be!

Date:

Astronomy

Oct. 15, 2011 Rise Set
Actual Time 7:07 AM EDT 6:08 PM EDT
Civil Twilight 6:38 AM EDT 6:38 PM EDT
Nautical Twilight 6:04 AM EDT 7:11 PM EDT
Astronomical Twilight 5:30 AM EDT 7:45 PM EDT
Moon 7:53 PM EDT (10/15) 10:38 AM EDT (10/15)
Length of Visible Light 12h 00m
Length of Day
11h 01m
Waning Gibbous, 89% of the Moon is Illuminated
Oct 15
Waning Gibbous
Oct 19
Last Quarter
Oct 26
New
Nov 2
First Quarter
Nov 10
Full

Hourly Weather History & Observations

Time (EDT) Temp. Dew Point Humidity Pressure Visibility Wind Dir Wind Speed Gust Speed Precip Events Conditions
12:04 AM 57.2 °F 55.4 °F 94% 29.22 in 6.0 mi SW 4.6 mph - 0.01 in Rain Light Rain
12:54 AM 57.0 °F 57.0 °F 100% 29.22 in 9.0 mi Calm Calm - 0.01 in Rain Light Rain
1:36 AM 57.2 °F 55.4 °F 94% 29.23 in 2.0 mi SSW 6.9 mph - 0.03 in Rain Rain
1:43 AM 57.2 °F 55.4 °F 94% 29.23 in 4.0 mi South 15.0 mph 20.7 mph 0.04 in Rain Light Rain
1:54 AM 55.9 °F 55.0 °F 97% 29.24 in 6.0 mi South 12.7 mph 20.7 mph 0.05 in Rain Light Rain
2:14 AM 55.4 °F 53.6 °F 94% 29.24 in 2.0 mi SSW 5.8 mph - 0.05 in Rain Rain
2:20 AM 55.4 °F 53.6 °F 94% 29.24 in 5.0 mi SSW 11.5 mph 17.3 mph 0.06 in Rain Light Rain
2:54 AM 55.0 °F 53.1 °F 93% 29.24 in 10.0 mi SSW 16.1 mph 23.0 mph 0.09 in Rain Light Rain
3:54 AM 54.0 °F 53.1 °F 97% 29.27 in 10.0 mi South 12.7 mph 21.9 mph 0.04 in Rain Light Rain
4:54 AM 54.0 °F 52.0 °F 93% 29.30 in 10.0 mi SSW 12.7 mph - 0.02 in Rain Light Rain
5:54 AM 53.1 °F 51.1 °F 93% 29.31 in 10.0 mi South 10.4 mph - 0.01 in   Overcast
6:54 AM 52.0 °F 48.9 °F 89% 29.33 in 10.0 mi South 15.0 mph 20.7 mph 0.01 in Rain Light Rain
7:54 AM 52.0 °F 46.0 °F 80% 29.36 in 10.0 mi South 15.0 mph 21.9 mph 0.00 in   Mostly Cloudy
8:54 AM 54.0 °F 44.1 °F 69% 29.38 in 10.0 mi South 10.4 mph 24.2 mph N/A   Scattered Clouds
9:54 AM 55.0 °F 45.0 °F 69% 29.39 in 10.0 mi South 16.1 mph 27.6 mph N/A   Mostly Cloudy
10:54 AM 53.1 °F 46.0 °F 77% 29.40 in 10.0 mi South 12.7 mph - 0.00 in Rain Light Rain
11:54 AM 57.0 °F 45.0 °F 64% 29.39 in 10.0 mi South 19.6 mph 26.5 mph 0.00 in   Mostly Cloudy
12:54 PM 57.9 °F 44.1 °F 60% 29.37 in 10.0 mi South 19.6 mph 38.0 mph N/A   Mostly Cloudy
1:54 PM 50.0 °F 46.9 °F 89% 29.38 in 10.0 mi South 10.4 mph 20.7 mph 0.01 in Rain Light Rain
1:59 PM 50.0 °F 46.4 °F 87% 29.38 in 10.0 mi SSW 12.7 mph 24.2 mph 0.00 in Rain , Thunderstorm Light Thunderstorms and Rain
2:23 PM 50.0 °F 46.4 °F 87% 29.38 in 10.0 mi South 9.2 mph - 0.00 in Rain Light Rain
2:54 PM 54.0 °F 46.0 °F 75% 29.37 in 10.0 mi SSW 8.1 mph 16.1 mph 0.00 in   Mostly Cloudy
3:54 PM 52.0 °F 46.0 °F 80% 29.38 in 10.0 mi SSW 10.4 mph - 0.02 in Rain Light Rain
4:54 PM 52.0 °F 46.0 °F 80% 29.39 in 4.0 mi SW 8.1 mph 16.1 mph 0.01 in Rain Rain
5:54 PM 53.1 °F 43.0 °F 69% 29.41 in 10.0 mi SSW 9.2 mph - 0.01 in   Overcast
6:54 PM 51.1 °F 42.1 °F 71% 29.43 in 10.0 mi South 11.5 mph - N/A   Overcast
7:54 PM 50.0 °F 43.0 °F 77% 29.44 in 10.0 mi South 13.8 mph 19.6 mph N/A   Overcast
8:54 PM 51.1 °F 41.0 °F 68% 29.44 in 10.0 mi South 18.4 mph - N/A   Mostly Cloudy
9:54 PM 51.1 °F 39.9 °F 66% 29.45 in 10.0 mi South 21.9 mph 33.4 mph N/A   Mostly Cloudy
10:54 PM 50.0 °F 41.0 °F 71% 29.47 in 10.0 mi SSW 19.6 mph 28.8 mph N/A   Overcast
11:54 PM 50.0 °F 39.9 °F 68% 29.48 in 10.0 mi SSW 18.4 mph 31.1 mph N/A   Overcast